Погода в Советском

Россия / Чувашская Республика     55°51′30″N   46°32′45″E
темп.,
°C
ветер,
м/с
пор.,
м/с
влажн.,
%
обл.,
%
осадки,
мм/ч
давл.,
гПа
погр.,
м
22 апреля, чт
чт2200:00+4ю71593100 0.9 1016659
03:00+5ююз51088100 1.0 1018468
06:00+4ю4989100 0.0 1020300
09:00+6ююв51086100 0.0 1020492
12:00+11ю7106985 0.0 10191297
15:00+9зюз387931 1.1 1020630
18:00+9з467588 0.3 1021222
21:00+6юз22827 0.3 102215
23 апреля, пт
пт2300:00+5ю33895 0.0 102330
03:00+4ю33885 0.0 102339
06:00+5ююв37835 0.0 1024140
09:00+12ю56596 0.0 1024611
12:00+14ююв33465 0.0 10221633
15:00+16ююв354278 0.0 10212078
18:00+12вюв3463100 0.0 102090
21:00+10юв41073100 0.1 1020263
24 апреля, сб
сб2400:00+8вюв3884100 0.1 1018152
03:00+7вюв3586100 0.1 101695
06:00+7в4985100 0.0 1015256
09:00+10вюв6873100 0.0 1013562
12:00+12вюв6665100 0.1 10101208
15:00+10вюв6777100 0.1 1009764
18:00+8вюв798049 0.0 1007622
21:00+6юв61392100 0.8 1005479
25 апреля, вс
вс2500:00+3зюз61296100 2.2 1005628
03:00+5зюз61078100 2.2 10061029
06:00+5зюз497993 0.0 1006926
09:00+6з7974100 0.1 10071048
12:00+9з7949100 0.1 10082296
15:00+9зюз895597 0.8 10101644
18:00+7зюз610585 0.8 1012724
21:00+4юз411755 0.8 1014302
26 апреля, пн
пн2600:00+3юз612765 0.0 1014399
03:00+2юз512845 0.0 1015350
06:00+2юз410840 0.0 1016386
09:00+7юз68645 0.0 10151179
12:00+8юз696387 0.3 10151344
15:00+8юз6106673 0.9 10141394
18:00+8юз487199 0.4 1013877
21:00+6з1282100 0.5 101247